INTELSAT 22 (IS-22) (38098 NORAD) Tracking and Keplerian Element Data

This shows tracking and keplerian element data for the satellite.

Feedback or suggestion? Click here.




ElementValue
Catalog38098
NameINTELSAT 22 (IS-22)
Epoch Orbit539
Epoch Day354.13756559
Epoch Year2025
RAAN42.664
Inclination0.0147
Eccentricity0.0001811
Argument of Perigee234.5908
Mean Anonmoly293.3399
Mean Motion1.00270553
Decay Rate-3.4E-07
L11 38098U 12011A 25354.13756559 -.00000034 00000+0 00000+0 0 9999
L22 38098 0.0147 42.6640 0001811 234.5908 293.3399 1.00270553 5394



Live tracking and technical data element details for INTELSAT 22 (IS-22) (NORAD 38098). INTELSAT 22 (IS-22) can be tracked NOW for your location showing map with azimuth and elevation plus other details from your city location.







IsCatalogInMostPopularTable: catalog: 38098, numindb: 891
Update: records affected: 1



GetName: 38098 INTELSAT 22 (IS-22)

Hit Count: updated at: Sat, 07 Mar 2026 07:07:11 GMT